Location: The Rolnick Observatory
(41.1711°N, 73.3275°W)
Time: 11:24:11
(UTC-04:00)

Envisat - Pass Details

Date: 26 February 2019
Orbit: 764 x 766 km, 98.1° (Epoch: 16 October)

Event Time Altitude Azimuth Distance (km) Brightness Sun altitude
Rises 20:09:07 0° 222° (SW) 3,218 6.6 -28.6°
Reaches altitude 10° 20:13:43 10° 261° (W) 2,300 6.2 -29.4°
Maximum altitude 20:14:43 11° 272° (W) 2,265 6.3 -29.6°
Drops below altitude 10° 20:15:43 10° 284° (WNW) 2,303 6.4 -29.8°
Sets 20:20:22 0° 323° (NW) 3,237 7.0 -30.6°
